764  
ASUS43 KFSD 272110  
RWRFSD  
 
WEATHER ROUNDUP FOR SE SOUTH DAKOTA/SW MINNESOTA/NW IOWA  
NATIONAL WEATHER SERVICE SIOUX FALLS SD  
400 PM CDT WED OCT 27 2021  
 
NOTE: "FAIR" INDICATES FEW OR NO CLOUDS BELOW 12,000 FEET WITH NO  
SIGNIFICANT WEATHER AND OR S TO VISIBILITY
.  
 
 
SDZ038>040-050-052>070-272200-  
SOUTHEAST SOUTH DAKOTA  
 
CITY SKY/WX TMP DP RH WIND PRES REMARKS
 
BROOKINGS RAIN 49 48 97 SE7 29.66R  
CHAMBERLAIN CLOUDY 51 45 77 NW12 29.73S  
HURON LGT RAIN 48 46 93 NW16 29.69R FOG  
MITCHELL LGT RAIN 49 47 93 NW18 29.69R  
SIOUX FALLS RAIN 52 50 93 S3 29.65R FOG  
WINNER PTSUNNY 54 39 57 NW16G22 29.75R  
YANKTON LGT RAIN 49 48 97 NW17 29.66R  

 
 
MNZ071-072-080-081-089-090-097-098-272200-  
SOUTHWEST MINNESOTA  
 
CITY SKY/WX TMP DP RH WIND PRES REMARKS
 
FAIRMONT LGT RAIN 48 46 93 SE18 29.68F  
JACKSON CLOUDY 46 45 93 SE13G18 29.68R  
LUVERNE RAIN 48 46 93 SE5 29.66R  
MARSHALL LGT RAIN 48 47 96 SE9 29.67S  
MONTEVIDEO DRIZZLE 46 45 93 S10 29.68S  
PIPESTONE LGT RAIN 48 48 100 S6 29.65R  
REDWOOD FALLS LGT RAIN 47 47 100 SE13 29.69S FOG  
TRACY DRIZZLE 48 45 87 SE8 29.67S  
WINDOM DRIZZLE 46 45 93 SE10 29.67S  
WORTHINGTON RAIN 47 47 100 SE9 29.67R FOG  

 
 
IAZ001>003-012>014-020>022-031-032-NEZ013-014-SDZ071-272200-  
NORTHWEST IOWA  
 
CITY SKY/WX TMP DP RH WIND PRES REMARKS
 
CHEROKEE RAIN 50 50 100 SE6 29.63S  
DENISON CLOUDY 52 52 100 SE5 29.62R  
ESTHERVILLE LGT RAIN 48 47 96 SE14 29.67F FOG  
LE MARS LGT RAIN 52 52 100 SE5 29.62F  
MAURICE LGT RAIN 50 50 100 SE7 29.63S  
SHELDON LGT RAIN 50 50 100 SE6 29.64R  
SIOUX CITY RAIN 53 51 93 E3 29.62F FOG  
SPENCER RAIN 50 46 86 SE13 29.66R FOG  

 
 
ABBREVIATIONS USED IN REMARKS  
TC - TEMPERATURE IN CELSIUS  
WCI - WIND CHILL INDEX  
HX - HEAT INDEX  
VSB - VISIBILITY  
 
 
 
CLICK HERE TO GO TO PREVIOUS BULLETINS.

The Nexlab SD Page
The Nexlab IA Page
The Nexlab MN Page
The Nexlab NE Page Main Text Page